User: anonymous   Login
Location: Unspecified
(0.0000°N, 0.0000°E)
Time: 21:31:38
(UTC+00:00)
Language:

ASO-S - Orbit

View from above orbital plane
View from above orbital plane
View from above satellite
View from above satellite

Ground track
Ground track

The orbit is defined by the following mean orbital elements,

1 54029U          26145.58293726 +.00000000 +00000-0 +61613-4 0 00004
2 54029  98.2751 150.9874 0014793 157.3984 202.7866 14.52048614    05
Epoch (UTC): 25 May 2026 13:59:25
Eccentricity: 0.0014793
inclination: 98.2751°
perigee height: 708 km
apogee height: 729 km
right ascension of ascending node: 150.9874°
argument of perigee: 157.3984°
revolutions per day: 14.52048614
mean anomaly at epoch: 202.7866°

The dashed part of the orbit path shows where the satellite is in the earth's shadow,  

DLR